[[{"header":{"parameterUnit":"m.s-1","parameterCategory":1,"la1":30.2991,"la2":30.254,"lo1":-89.0895,"lo2":-89.0444,"dy":0.0017,"dx":0.0017,"nx":28,"ny":28,"refTime":"2023-11-13T09:00:00:Z","depth":0,"parameterNumber":2,"parameterNumberName":"U-component_of_WINDS"},"data":[0,0,0,0,0,0,0,0,0,0,0,0,0,0,0,0,0,0,0,0,0,0,0,0,0,0,0,0,0,0,0,0,0,0,0,0,0,0,0,0,0,0,0,0,0,0,0,0,0,0,0,0,0,0,0,0,0,0,-2.8482,-2.8483,0,-2.8557,-2.8558,-2.8559,-2.8495,-2.8492,-2.849,-2.8487,-2.8565,-2.8569,-2.8574,0,0,0,0,0,0,0,0,0,0,0,0,0,-2.8284,-2.8288,-2.8482,-2.8483,-2.8484,-2.8557,-2.8558,-2.8559,-2.8495,-2.8492,-2.8489,-2.8486,-2.8563,-2.8568,-2.8574,0,0,0,0,0,0,0,0,0,0,0,0,0,-2.8366,-2.829,-2.8482,-2.8461,-2.846,-2.8557,-2.8558,-2.8559,-2.8496,-2.8492,-2.8488,-2.8484,-2.8561,-2.8568,-2.8575,-2.8696,0,0,-2.8595,-2.8598,0,0,0,0,0,0,0,0,-2.8361,-2.8373,-2.8463,-2.8463,-2.8462,-2.8512,-2.8516,-2.8605,-2.8497,-2.8482,-2.8487,-2.8482,-2.8551,-2.8558,-2.8581,-2.87,-2.8703,-2.8596,-2.86,-2.8603,-2.8605,0,0,0,0,0,0,0,-2.8356,-2.837,-2.8512,-2.8465,-2.8464,-2.8448,-2.8455,-2.8533,-2.8538,-2.8483,-2.8479,-2.8489,-2.8549,-2.8574,-2.8582,-2.8704,-2.8596,-2.8602,-2.8606,-2.8609,-2.8927,-2.8931,0,0,0,0,0,0,-2.8352,-2.8365,-2.8509,-2.8514,-2.8401,-2.8455,-2.8463,-2.85,-2.8537,-2.8539,-2.8492,-2.8485,-2.8565,-2.8574,-2.8585,-2.873,-2.8603,-2.8609,-2.8613,-2.8922,-2.8928,-2.8932,0,0,0,0,0,0,-2.8348,-2.8366,-2.8506,-2.8439,-2.8455,-2.8462,-2.8505,-2.8504,-2.8529,-2.8543,-2.8544,-2.8517,-2.8562,-2.8575,-2.8669,-2.8732,-2.8612,-2.8619,-2.8917,-2.8924,-2.893,-2.9021,0,0,0,0,0,0,-2.8343,-2.8365,-2.8411,-2.844,-2.8459,-2.859,-2.8509,-2.8508,-2.8541,-2.8533,-2.8567,-2.8568,-2.856,-2.8659,-2.8676,-2.8739,-2.8624,-2.8912,-2.892,-2.8928,-2.9012,-2.903,-2.9045,0,0,0,0,0,-2.8336,-2.8434,-2.8414,-2.8431,-2.8517,-2.8593,-2.8604,-2.8592,-2.8546,-2.8593,-2.8602,-2.8567,-2.8722,-2.8669,-2.8687,-2.8754,-2.8908,-2.8918,-2.8927,-2.9005,-2.9026,-2.9044,0,0,0,0,0,0,-2.8412,-2.8437,-2.8415,-2.8525,-2.8558,-2.8582,-2.8641,-2.8615,-2.8661,-2.8652,-2.8635,-2.8643,-2.8743,-2.8757,-2.8698,-2.8873,-2.8807,-2.8821,-2.886,-2.8881,-2.8896,-2.8892,-2.863,0,0,0,0,0,-2.8442,-2.8502,-2.852,-2.8615,-2.8633,-2.8634,-2.8667,-2.8655,-2.8688,-2.8701,-2.8717,-2.8751,-2.8807,-2.8844,-2.8896,-2.9013,-2.902,-2.9068,-2.9084,-2.9097,-2.911,-2.9173,-2.9195,-2.8965,-2.8964,-2.8964,0,0,-2.8504,-2.8525,-2.8564,-2.8631,-2.8655,-2.8718,-2.8646,-2.8715,-2.8762,-2.8712,-2.8802,-2.8814,-2.8851,-2.8957,-2.9004,-2.8972,-2.9175,-2.911,-2.912,-2.9126,-2.9186,-2.9207,-2.9227,-2.8971,-2.897,-2.8969,0,0,-2.8649,-2.8671,-2.8753,-2.8778,-2.8814,-2.8814,-2.8834,-2.8863,-2.8869,-2.8959,-2.8923,-2.8977,-2.9074,-2.9101,-2.9128,-2.9282,-2.9253,-2.93,-2.9385,-2.9447,-2.9465,-2.9481,-2.9537,-2.9557,-2.9312,-2.9312,-2.9312,0,-2.8722,-2.8815,-2.8798,-2.887,-2.8901,-2.8858,-2.8941,-2.8966,-2.9018,-2.904,-2.9003,-2.9123,-2.9144,-2.9257,-2.9294,-2.9317,-2.9339,-2.9297,-2.9463,-2.9479,-2.9494,-2.9548,-2.9569,-2.9318,-2.9317,-2.9316,-2.9316,0,-2.8902,-2.8967,-2.9029,-2.908,-2.9118,-2.9195,-2.919,-2.923,-2.9214,-2.9218,-2.931,-2.9334,-2.939,-2.9415,-2.9401,-2.9526,-2.9505,-2.9466,-2.94,-2.9522,-2.9572,-2.9592,-2.9326,-2.9324,-2.9322,-2.9321,0,0,-2.91,-2.914,-2.9163,-2.9186,-2.9222,-2.9272,-2.9347,-2.9402,-2.9437,-2.9473,-2.9536,-2.9619,-2.9583,-2.9613,-2.96,-2.9655,-2.9777,-2.9609,-2.961,-2.964,-2.9917,-2.9947,-2.9971,-2.9756,-2.976,-2.9763,-2.9914,0,-2.9247,-2.9378,-2.9365,-2.9489,-2.9549,-2.9508,-2.9573,-2.9603,-2.9609,-2.966,-2.9666,-2.9725,-2.9672,-2.969,-2.9742,-2.9751,-2.9832,-2.9739,-2.9815,-2.9818,-2.981,-2.9997,-3.0029,-3.0171,-2.9933,-2.9937,-2.9939,0,-2.9438,-2.9481,-2.9611,-2.9639,-2.9663,-2.9722,-2.9771,-2.9821,-2.9853,-2.9853,-2.9887,-2.9865,-2.994,-2.9871,-2.9975,-2.9912,-2.9942,-2.9951,-2.9956,-2.9964,-2.9888,-3.0012,-3.0216,-3.0238,-2.9969,-2.9967,-2.9965,0,-2.957,-2.9661,-2.9751,-2.9771,-2.9805,-2.9847,-2.9863,-2.9892,-2.9925,-2.9968,-2.999,-3.0041,-3.0069,-3.0109,-3.0101,-3.0051,-3.0208,-3.0138,-3.0211,-3.0211,-3.0247,-3.0245,-3.0461,-3.0264,-3.0263,-3.0263,-3.0263,0,-2.9738,-2.9819,-2.9811,-2.9866,-2.9956,-2.994,-3.003,-3.004,-3.0066,-3.0123,-3.009,-3.0144,-3.0129,-3.0183,-3.0177,-3.0265,-3.0277,-3.028,-3.0278,-3.0284,-3.0284,-3.0305,-3.0295,-3.0269,-3.0267,-3.0266,-3.0265,0,-2.9902,-2.9899,-2.9995,-3.0018,-3.0026,-3.0092,-3.0112,-3.0164,-3.0166,-3.0239,-3.0254,-3.0258,-3.0319,-3.0315,-3.0384,-3.038,-3.0488,-3.0474,-3.0478,-3.0475,-3.0549,-3.0543,-3.0787,-3.0818,-3.06,-3.0602,-3.0603,0,-3.001,-3.0072,-3.0102,-3.0137,-3.0156,-3.0214,-3.0248,-3.0234,-3.0271,-3.0312,-3.0359,-3.0417,-3.0463,-3.0563,-3.0572,-3.0624,-3.0612,-3.0693,-3.0619,-3.0624,-3.0615,-3.0612,-3.0618,-3.0709,-3.0711,-3.0713,-3.0715,0,-3.0202,-3.0197,-3.0248,-3.0298,-3.0339,-3.0378,-3.0413,-3.0444,-3.0434,-3.0477,-3.0539,-3.0574,-3.0644,-3.0703,-3.0753,-3.0769,-3.0741,-3.0737,-3.0757,-3.0765,-3.0766,-3.0768,-3.0519,-3.0733,-3.0731,-3.0729,-3.0728,-3.0728,-3.0342,-3.0395,-3.0425,-3.0482,-3.0507,-3.0541,-3.0591,-3.0599,-3.065,-3.0707,-3.0694,-3.0765,-3.0795,-3.0859,-3.088,-3.0934,-3.0905,-3.0933,-3.0941,-3.0949,-3.0958,-3.0755,-3.0943,-3.0942,-3.0942,-3.0941,-3.0941,0,-3.0534,-3.0551,-3.0603,-3.0654,-3.0699,-3.0667,-3.0704,-3.0744,-3.0806,-3.0836,-3.0882,-3.0953,-3.1009,-3.1022,-3.1075,-3.1117,-3.1105,-3.1131,-3.1129,-3.1134,-3.098,-3.0958,-3.114,-3.114,-3.114,-3.114,-3.114,-3.114,-3.0639,-3.0728,-3.0727,-3.0827,-3.0843,-3.0911,-3.0935,-3.0966,-3.099,-3.1071,-3.1117,-3.1125,-3.1148,-3.1203,-3.1253,-3.1256,-3.1278,-3.1309,-3.1307,-3.1164,-3.1144,-3.1125,-3.1105,-3.1314,-3.1314,-3.1456,-3.1457,-3.1458]},{"header":{"parameterUnit":"m.s-1","parameterCategory":1,"la1":30.2991,"la2":30.254,"lo1":-89.0895,"lo2":-89.0444,"dy":0.0017,"dx":0.0017,"nx":28,"ny":28,"refTime":"2023-11-13T09:00:00:Z","depth":0,"parameterNumber":3,"parameterNumberName":"V-component_of_WINDS"},"data":[0,0,0,0,0,0,0,0,0,0,0,0,0,0,0,0,0,0,0,0,0,0,0,0,0,0,0,0,0,0,0,0,0,0,0,0,0,0,0,0,0,0,0,0,0,0,0,0,0,0,0,0,0,0,0,0,0,0,-4.8391,-4.8391,0,-4.84,-4.84,-4.84,-4.8324,-4.8322,-4.832,-4.8318,-4.8326,-4.8328,-4.833,0,0,0,0,0,0,0,0,0,0,0,0,0,-4.8307,-4.8309,-4.8391,-4.8391,-4.8391,-4.84,-4.84,-4.84,-4.8325,-4.8322,-4.832,-4.8317,-4.8325,-4.8328,-4.833,0,0,0,0,0,0,0,0,0,0,0,0,0,-4.8332,-4.8309,-4.8391,-4.8355,-4.8351,-4.84,-4.84,-4.84,-4.8325,-4.8322,-4.8319,-4.8316,-4.8324,-4.8328,-4.8331,-4.8414,0,0,-4.8341,-4.8342,0,0,0,0,0,0,0,0,-4.8331,-4.8335,-4.836,-4.8357,-4.8354,-4.8358,-4.8373,-4.8405,-4.8326,-4.8335,-4.8318,-4.8314,-4.8339,-4.8341,-4.8349,-4.8414,-4.8414,-4.8341,-4.8343,-4.8344,-4.8345,0,0,0,0,0,0,0,-4.8329,-4.8335,-4.8394,-4.836,-4.8357,-4.8337,-4.8337,-4.8379,-4.8355,-4.8334,-4.8329,-4.8331,-4.8337,-4.8346,-4.8349,-4.8415,-4.8341,-4.8344,-4.8346,-4.8347,-4.8546,-4.855,0,0,0,0,0,0,-4.8333,-4.8334,-4.8394,-4.8395,-4.8334,-4.8341,-4.8341,-4.836,-4.8354,-4.835,-4.8333,-4.8327,-4.8342,-4.8345,-4.8349,-4.8445,-4.8344,-4.8347,-4.8349,-4.8543,-4.8547,-4.8551,0,0,0,0,0,0,-4.8331,-4.8339,-4.8394,-4.8363,-4.8368,-4.8346,-4.8367,-4.8361,-4.8371,-4.8353,-4.8349,-4.8348,-4.834,-4.8344,-4.8398,-4.8444,-4.8349,-4.8352,-4.8539,-4.8544,-4.8549,-4.8638,0,0,0,0,0,0,-4.8329,-4.8339,-4.8371,-4.8364,-4.837,-4.8443,-4.837,-4.8364,-4.8377,-4.8369,-4.8366,-4.8362,-4.8338,-4.8394,-4.8401,-4.8447,-4.8354,-4.8535,-4.8542,-4.8547,-4.8631,-4.8646,-4.8658,0,0,0,0,0,-4.8326,-4.8395,-4.8373,-4.838,-4.841,-4.8446,-4.845,-4.8421,-4.8381,-4.8412,-4.8401,-4.8362,-4.8438,-4.84,-4.8408,-4.8455,-4.8532,-4.854,-4.8547,-4.8625,-4.8643,-4.8658,0,0,0,0,0,0,-4.8408,-4.8394,-4.8368,-4.8438,-4.8444,-4.8433,-4.8472,-4.8441,-4.8458,-4.845,-4.8413,-4.8412,-4.8472,-4.8469,-4.8426,-4.8534,-4.8478,-4.8487,-4.8534,-4.8551,-4.8564,-4.8564,-4.8357,0,0,0,0,0,-4.8434,-4.8465,-4.8451,-4.8513,-4.8518,-4.8495,-4.851,-4.8487,-4.8491,-4.8494,-4.8486,-4.8492,-4.8516,-4.8534,-4.8556,-4.863,-4.8628,-4.8666,-4.868,-4.8691,-4.87,-4.8738,-4.8755,-4.8576,-4.8576,-4.8575,0,0,-4.8488,-4.8484,-4.8506,-4.853,-4.8532,-4.8564,-4.8497,-4.8535,-4.8559,-4.8499,-4.8549,-4.8544,-4.8548,-4.8612,-4.864,-4.8611,-4.8749,-4.8701,-4.871,-4.8712,-4.8747,-4.8764,-4.8779,-4.8581,-4.858,-4.8579,0,0,-4.8603,-4.8604,-4.8655,-4.8659,-4.8662,-4.8646,-4.8659,-4.8653,-4.8648,-4.8697,-4.8653,-4.868,-4.8724,-4.8728,-4.8736,-4.8852,-4.8817,-4.886,-4.8931,-4.8968,-4.8983,-4.8995,-4.9035,-4.905,-4.8869,-4.8869,-4.8869,0,-4.867,-4.8718,-4.8686,-4.8726,-4.8737,-4.8685,-4.8736,-4.8741,-4.8752,-4.876,-4.8728,-4.8781,-4.878,-4.8844,-4.8872,-4.8881,-4.8893,-4.886,-4.8983,-4.8995,-4.9006,-4.9044,-4.906,-4.8874,-4.8874,-4.8873,-4.8873,0,-4.8799,-4.8833,-4.8873,-4.8885,-4.8901,-4.8947,-4.8921,-4.8941,-4.8916,-4.8903,-4.8954,-4.8951,-4.8971,-4.8984,-4.8961,-4.9045,-4.9027,-4.899,-4.8932,-4.9029,-4.9064,-4.9079,-4.8882,-4.888,-4.8878,-4.8877,0,0,-4.8966,-4.8959,-4.8974,-4.8978,-4.8979,-4.9004,-4.9047,-4.9066,-4.9083,-4.9093,-4.9127,-4.9165,-4.913,-4.9139,-4.9116,-4.9149,-4.924,-4.9107,-4.9107,-4.9131,-4.9331,-4.9359,-4.9376,-4.9217,-4.9219,-4.9221,-4.933,0,-4.9077,-4.915,-4.9122,-4.9197,-4.9227,-4.9178,-4.9215,-4.9219,-4.9208,-4.9231,-4.9219,-4.9246,-4.9199,-4.9204,-4.9234,-4.9222,-4.9279,-4.9214,-4.9247,-4.9249,-4.9248,-4.9395,-4.9424,-4.9527,-4.9344,-4.9346,-4.9348,0,-4.9217,-4.9232,-4.931,-4.9304,-4.9315,-4.9349,-4.9364,-4.9388,-4.9391,-4.938,-4.939,-4.9359,-4.94,-4.9343,-4.9398,-4.9354,-4.9366,-4.9363,-4.9366,-4.9367,-4.9304,-4.94,-4.956,-4.9575,-4.937,-4.9368,-4.9366,0,-4.933,-4.937,-4.9421,-4.9426,-4.9421,-4.9445,-4.9444,-4.9444,-4.9457,-4.947,-4.9478,-4.9496,-4.9506,-4.952,-4.9494,-4.9455,-4.9553,-4.9494,-4.9545,-4.9546,-4.9567,-4.9566,-4.9731,-4.9576,-4.9576,-4.9576,-4.9575,0,-4.9458,-4.9507,-4.9471,-4.9503,-4.9557,-4.9524,-4.9577,-4.957,-4.9571,-4.9599,-4.9558,-4.9585,-4.955,-4.9574,-4.9555,-4.9603,-4.9608,-4.96,-4.9594,-4.9603,-4.9604,-4.961,-4.9602,-4.958,-4.9579,-4.9578,-4.9577,0,-4.9593,-4.9571,-4.9624,-4.9614,-4.9612,-4.9652,-4.9643,-4.9672,-4.9658,-4.9695,-4.9701,-4.9679,-4.9706,-4.9681,-4.9707,-4.9693,-4.9757,-4.9741,-4.9757,-4.9752,-4.9804,-4.9799,-4.9978,-4.9999,-4.9832,-4.9833,-4.9835,0,-4.9675,-4.9712,-4.9706,-4.9722,-4.9723,-4.975,-4.9763,-4.9732,-4.9747,-4.9753,-4.978,-4.9803,-4.982,-4.9864,-4.985,-4.9869,-4.9853,-4.9914,-4.9855,-4.9863,-4.9853,-4.9851,-4.9854,-4.9926,-4.9928,-4.9929,-4.9931,0,-4.9824,-4.9811,-4.9831,-4.9848,-4.9865,-4.9877,-4.9885,-4.9901,-4.9868,-4.9888,-4.9914,-4.9927,-4.9952,-4.9975,-4.999,-4.9987,-4.9954,-4.9949,-4.9962,-4.9972,-4.9979,-4.9975,-4.9788,-4.9945,-4.9944,-4.9943,-4.9942,-4.9941,-4.9934,-4.9964,-4.9964,-4.9988,-4.9991,-5.0,-5.0026,-5.0015,-5.0036,-5.0054,-5.0034,-5.0066,-5.0067,-5.0083,-5.0085,-5.0109,-5.0083,-5.0102,-5.0106,-5.0111,-5.0119,-4.9975,-5.0112,-5.0111,-5.0111,-5.0111,-5.011,0,-5.0079,-5.0077,-5.0099,-5.0112,-5.0131,-5.0098,-5.0105,-5.0123,-5.0151,-5.0155,-5.0172,-5.0202,-5.0224,-5.0211,-5.023,-5.0252,-5.0237,-5.0258,-5.0255,-5.0255,-5.0141,-5.0128,-5.0269,-5.0269,-5.0269,-5.0269,-5.0269,-5.0269,-5.0157,-5.0206,-5.0193,-5.0242,-5.0239,-5.027,-5.0277,-5.0284,-5.0287,-5.0322,-5.034,-5.0332,-5.0329,-5.0346,-5.0365,-5.036,-5.0369,-5.0396,-5.0386,-5.0279,-5.0263,-5.0249,-5.0236,-5.0398,-5.0398,-5.0498,-5.0499,-5.0499]}]]